sat.trackr.live / text

‹ back to catalog

STARLINK-35561

NORAD 66105 · 2025-236V

PAYLOAD ACTIVE UNKNOWN

§ Identity

Operator
Country
US
Launch date
2025-10-19
Launch site
AFWTR
Launch vehicle
Mass (kg)
RCS (m²)

Purposes: comms

External: N2YO · Heavens-Above · Gunter

§ Orbital elements

Epoch: 2026-05-25T04:08:57.403104Z

Period
94.10 min
Inclination
53.1584°
Eccentricity
0.0001342
Mean motion
15.30209760 rev/d
Perigee alt
474.3 km
Apogee alt
476.1 km
Semi-major
6,853.3 km
B*
6.2776e-4
RAAN
108.6746°
Arg perigee
92.0655°
Mean anomaly
268.0500°
Rev number
3,459

§ Raw data

STARLINK-355611 66105U 25236V   26145.17288661  .00018285  00000+0  62776-3 0  99972 66105  53.1584 108.6746 0001342  92.0655 268.0500 15.30209760 34590

JSON: /api/v1/satellites/66105 · /tle

For live sub-satellite position, see the globe view (requires WebGL).

§ Visibility from observer

Set your observer location to see the next 7 days of passes ≥ 10°. The values pass through the URL so the page stays shareable.

No JS? Fill the form by hand. The geolocation button needs JavaScript.